(173251) = 1999 RD73 = 2003 YP28

Discovered at Socorro on 1999-09-07 by LINEAR.

Orbit

Orbit type: Main Belt

Note: WebGL enabled browser required.

epoch2024-03-31.0
epoch JD2460400.5
perihelion date2021-10-24.82965
perihelion JD2459512.32965
argument of perihelion (°)105.25925
ascending node (°)260.12932
inclination (°)1.17744
eccentricity0.2426414
perihelion distance (AU)1.8017866
Tisserand w.r.t. Jupiter3.5
ΔV w.r.t. Earth (km/sec)8.4
semimajor axis (AU)2.3790403
mean anomaly (°)238.55988
mean daily motion (°/day)0.26859700
aphelion distance (AU)2.956
period (years)3.67
P-vector [x]0.99538004
P-vector [y]0.07830680
P-vector [z]0.05555742
Q-vector [x]-0.09385489
Q-vector [y]0.91556996
Q-vector [z]0.39105359
absolute magnitude17.1
phase slope0.15
uncertainty0
referenceMPEC 2024-E133
observations used623
oppositions13
arc length (days)8591
first opposition used1999
last opposition used2023
residual rms (arc-secs)0.68
perturbers coarse indicatorM-v
perturbers precise indicator003Ek
first observation date used1999-09-07.0
last observation date used2023-03-16.0
computer nameMPCLINUX
JD of orbit computation2456465.521133
perihelion JD uncertainty (days)4.7119E-05
argument of perihelion uncertainty (°)3.7126E-04
ascending node uncertainty (°)3.7103E-04
inclination uncertainty (°)3.8660E-06
eccentricity uncertainty 6.8817E-08
perihelion distance uncertainty (AU)1.6448E-07
Minimum Orbit Intersection Distances (in AU)
for orbit epoch: 2460400.5, reference: E2024-GD4
Mercury1.44414
Venus1.07907
Earth0.80048
Mars0.40103
Jupiter2.49826
Saturn6.474
Uranus15.5098
Neptune27.6042

Observations

658 total observations over interval: 1999 09 07.34353 – 2023 03 16.325660
These data are available for download (format description).

Date (UT) J2000 RA J2000 Dec Magn Location Ref
1999 09 07.34353 23 10 58.72 -02 25 14.3 18.7   704 – Lincoln Laboratory ETS, New Mexico MPS 6250
1999 09 07.35535 23 10 58.14 -02 25 17.1 19.2   704 – Lincoln Laboratory ETS, New Mexico MPS 6250
1999 09 07.36718 23 10 57.50 -02 25 20.3 19.1   704 – Lincoln Laboratory ETS, New Mexico MPS 6250
1999 09 07.37914 23 10 56.97 -02 25 23.1 19.0   704 – Lincoln Laboratory ETS, New Mexico MPS 6250
1999 09 07.39072 23 10 56.38 -02 25 26.7 19.2   704 – Lincoln Laboratory ETS, New Mexico MPS 6250
1999 09 09.40731 23 09 24.06 -02 34 40.5 18.8   704 – Lincoln Laboratory ETS, New Mexico MPS 6250
1999 09 09.42090 23 09 23.41 -02 34 44.7 19.1   704 – Lincoln Laboratory ETS, New Mexico MPS 6250
1999 09 09.43458 23 09 22.69 -02 34 49.4 18.9   704 – Lincoln Laboratory ETS, New Mexico MPS 6250
1999 09 09.44821 23 09 22.04 -02 34 53.1 19.3   704 – Lincoln Laboratory ETS, New Mexico MPS 6250
1999 09 13.27952 23 06 26.99 -02 53 00.8 19.0   704 – Lincoln Laboratory ETS, New Mexico MPS 6250
1999 09 13.27956 23 06 26.91 -02 53 00.7 18.8   704 – Lincoln Laboratory ETS, New Mexico MPS 6250
1999 09 13.27962 23 06 26.94 -02 53 01.1 19.0   704 – Lincoln Laboratory ETS, New Mexico MPS 6250
1999 09 13.29081 23 06 26.40 -02 53 03.9 19.5   704 – Lincoln Laboratory ETS, New Mexico MPS 6250
1999 09 13.29085 23 06 26.36 -02 53 04.1 19.3   704 – Lincoln Laboratory ETS, New Mexico MPS 6250
1999 09 13.29091 23 06 26.36 -02 53 04.6 19.2   704 – Lincoln Laboratory ETS, New Mexico MPS 6250
1999 09 13.30221 23 06 25.79 -02 53 06.7 19.7   704 – Lincoln Laboratory ETS, New Mexico MPS 6250
1999 09 13.30226 23 06 25.79 -02 53 08.1 19.5   704 – Lincoln Laboratory ETS, New Mexico MPS 6250
1999 09 13.31364 23 06 25.34 -02 53 11.1 18.9   704 – Lincoln Laboratory ETS, New Mexico MPS 6250
1999 09 13.31374 23 06 25.25 -02 53 11.3 19.2   704 – Lincoln Laboratory ETS, New Mexico MPS 6250
1999 09 13.32512 23 06 24.71 -02 53 14.4 19.3   704 – Lincoln Laboratory ETS, New Mexico MPS 6250
1999 09 13.32516 23 06 24.68 -02 53 14.9 19.3   704 – Lincoln Laboratory ETS, New Mexico MPS 6250
1999 09 13.32522 23 06 24.69 -02 53 14.4 19.3   704 – Lincoln Laboratory ETS, New Mexico MPS 6250
1999 09 14.19887 23 05 45.54 -02 57 25.3 18.7   704 – Lincoln Laboratory ETS, New Mexico MPS 6250
1999 09 14.21169 23 05 44.92 -02 57 29.0 18.6   704 – Lincoln Laboratory ETS, New Mexico MPS 6250
1999 09 14.22463 23 05 44.28 -02 57 33.0 18.8   704 – Lincoln Laboratory ETS, New Mexico MPS 6250
1999 09 14.23748 23 05 43.67 -02 57 36.5 18.2   704 – Lincoln Laboratory ETS, New Mexico MPS 6250
1999 09 14.25044 23 05 43.03 -02 57 40.1 18.7   704 – Lincoln Laboratory ETS, New Mexico MPS 6250
1999 09 14.25433 23 05 42.81 -02 57 41.1 19.1   704 – Lincoln Laboratory ETS, New Mexico MPS 6250
1999 09 14.25439 23 05 42.79 -02 57 42.0 18.9   704 – Lincoln Laboratory ETS, New Mexico MPS 6250
1999 09 14.25446 23 05 42.84 -02 57 41.6 19.1   704 – Lincoln Laboratory ETS, New Mexico MPS 6250
1999 09 14.26693 23 05 42.22 -02 57 45.4 19.2   704 – Lincoln Laboratory ETS, New Mexico MPS 6250
1999 09 14.26700 23 05 42.23 -02 57 45.4 19.2   704 – Lincoln Laboratory ETS, New Mexico MPS 6250
1999 09 14.26706 23 05 42.20 -02 57 45.9 19.3   704 – Lincoln Laboratory ETS, New Mexico MPS 6250
1999 09 14.26800 23 05 42.17 -02 57 44.3 18.3 R 703 – Catalina Sky Survey MPS 6250
1999 09 14.27969 23 05 41.59 -02 57 49.4 19.2   704 – Lincoln Laboratory ETS, New Mexico MPS 6250
1999 09 14.27976 23 05 41.60 -02 57 49.1 19.3   704 – Lincoln Laboratory ETS, New Mexico MPS 6250
1999 09 14.27982 23 05 41.62 -02 57 49.0 19.2   704 – Lincoln Laboratory ETS, New Mexico MPS 6250
1999 09 14.28051 23 05 41.57 -02 57 48.1 18.3 R 703 – Catalina Sky Survey MPS 6250
1999 09 14.29165 23 05 41.05 -02 57 51.3 18.5 V 691 – Steward Observatory, Kitt Peak-Spacewatch MPS 6250
1999 09 14.29245 23 05 41.04 -02 57 53.6 19.3   704 – Lincoln Laboratory ETS, New Mexico MPS 6250
1999 09 14.29251 23 05 40.99 -02 57 53.0 19.4   704 – Lincoln Laboratory ETS, New Mexico MPS 6250
1999 09 14.29257 23 05 41.00 -02 57 53.2 19.7   704 – Lincoln Laboratory ETS, New Mexico MPS 6250
1999 09 14.29285 23 05 40.94 -02 57 52.3 18.2 R 703 – Catalina Sky Survey MPS 6250
1999 09 14.30524 23 05 40.34 -02 57 55.0 18.1 R 703 – Catalina Sky Survey MPS 6250
1999 09 14.30528 23 05 40.34 -02 57 57.0 19.2   704 – Lincoln Laboratory ETS, New Mexico MPS 6250
1999 09 14.30535 23 05 40.39 -02 57 56.5 19.3   704 – Lincoln Laboratory ETS, New Mexico MPS 6250
1999 09 14.30541 23 05 40.33 -02 57 57.5 19.2   704 – Lincoln Laboratory ETS, New Mexico MPS 6250
1999 09 14.31577 23 05 39.86 -02 57 58.4 18.5 V 691 – Steward Observatory, Kitt Peak-Spacewatch MPS 6250
1999 09 14.34283 23 05 38.56 -02 58 06.3 18.5 V 691 – Steward Observatory, Kitt Peak-Spacewatch MPS 6250
1999 10 06.17307 22 53 30.27 -04 26 47.8 19.5   704 – Lincoln Laboratory ETS, New Mexico MPS 6807
1999 10 06.18666 22 53 29.96 -04 26 50.7 20.1   704 – Lincoln Laboratory ETS, New Mexico MPS 6807
1999 10 06.19989 22 53 29.67 -04 26 53.3 20.0   704 – Lincoln Laboratory ETS, New Mexico MPS 6807
1999 10 06.21315 22 53 29.42 -04 26 55.3 20.0   704 – Lincoln Laboratory ETS, New Mexico MPS 6807
1999 10 06.22654 22 53 29.18 -04 26 59.0 20.7   704 – Lincoln Laboratory ETS, New Mexico MPS 6807
2003 11 21.32636 05 15 09.46 +23 29 03.8 19.8   704 – Lincoln Laboratory ETS, New Mexico MPS 94899
2003 11 21.35214 05 15 07.87 +23 28 59.4 20.1   704 – Lincoln Laboratory ETS, New Mexico MPS 94899
2003 11 21.36513 05 15 07.01 +23 28 57.6 20.4   704 – Lincoln Laboratory ETS, New Mexico MPS 94899
2003 11 21.37790 05 15 06.25 +23 28 57.4 20.0   704 – Lincoln Laboratory ETS, New Mexico MPS 94899
2003 12 17.35564 04 46 34.12 +22 27 52.2 20.1 V 691 – Steward Observatory, Kitt Peak-Spacewatch MPS 94899
2003 12 17.38206 04 46 32.47 +22 27 48.0 19.9 V 691 – Steward Observatory, Kitt Peak-Spacewatch MPS 94899
2003 12 17.41056 04 46 30.71 +22 27 42.9 19.9 V 691 – Steward Observatory, Kitt Peak-Spacewatch MPS 94899
2003 12 19.26339 04 44 41.92 +22 23 02.6 20.1   704 – Lincoln Laboratory ETS, New Mexico MPS 94899
2003 12 19.27689 04 44 41.06 +22 23 01.5 20.0   704 – Lincoln Laboratory ETS, New Mexico MPS 94899
2003 12 19.31676 04 44 38.62 +22 22 54.9 20.0   704 – Lincoln Laboratory ETS, New Mexico MPS 94899
2005 03 12.28464 12 03 30.10 -02 16 58.7 21.2 V 691 – Steward Observatory, Kitt Peak-Spacewatch MPS 128864
2005 03 12.31054 12 03 28.66 -02 16 49.8 21.1 V 691 – Steward Observatory, Kitt Peak-Spacewatch MPS 128864
2005 03 12.34532 12 03 26.74 -02 16 38.0 21.0 V 691 – Steward Observatory, Kitt Peak-Spacewatch MPS 128864
2005 04 06.25338 11 41 27.14 +00 09 16.7 21.1 R G96 – Mt. Lemmon Survey MPS 130572
2005 04 06.25937 11 41 26.86 +00 09 18.5 21.1 R G96 – Mt. Lemmon Survey MPS 130572
2005 04 06.26536 11 41 26.51 +00 09 20.5 20.8 R G96 – Mt. Lemmon Survey MPS 130572
2005 04 06.27138 11 41 26.31 +00 09 22.6 21.2 R G96 – Mt. Lemmon Survey MPS 130572
2005 04 12.19723 11 37 05.10 +00 39 48.3 21.2 R G96 – Mt. Lemmon Survey MPS 131494
2005 04 12.20389 11 37 04.81 +00 39 50.6 22.1 R G96 – Mt. Lemmon Survey MPS 131494
2005 04 12.21058 11 37 04.54 +00 39 52.2 20.6 R G96 – Mt. Lemmon Survey MPS 131494
2005 04 12.21727 11 37 04.27 +00 39 54.3 20.4 R G96 – Mt. Lemmon Survey MPS 131494
2007 11 11.51737 08 44 17.80 +17 31 23.8 21.2 V G96 – Mt. Lemmon Survey MPS 226664
2007 11 11.52234 08 44 17.98 +17 31 23.1 21.6 V G96 – Mt. Lemmon Survey MPS 226664
2007 11 11.52740 08 44 18.16 +17 31 21.9 21.6 V G96 – Mt. Lemmon Survey MPS 226664
2007 11 11.53240 08 44 18.31 +17 31 21.1 21.2 V G96 – Mt. Lemmon Survey MPS 226664
2007 12 30.35644 08 41 03.79 +17 10 45.3 20.6 V 691 – Steward Observatory, Kitt Peak-Spacewatch MPS 232534
2007 12 30.37408 08 41 02.93 +17 10 47.8 20.7 V 691 – Steward Observatory, Kitt Peak-Spacewatch MPS 232534
2007 12 30.39172 08 41 02.02 +17 10 50.5 20.8 V 691 – Steward Observatory, Kitt Peak-Spacewatch MPS 232534
2008 01 11.24593 08 29 46.25 +17 45 26.8 20.4 V 691 – Steward Observatory, Kitt Peak-Spacewatch MPS 233287
2008 01 11.26117 08 29 45.26 +17 45 29.5 20.5 V 691 – Steward Observatory, Kitt Peak-Spacewatch MPS 233287
